Lapse_Rate
6.4 5.5 5.1 4.8 4.8 4.9 5.4 5.9 6.3 6.4 6.5 6.7 6.5 5.6 4.7 5.0 4.8 4.8 6.5 7.0 7.1 7.1 7.1 7.3 7.3 6.7 6.8 6.5 6.3 6.5 6.1 6.0 5.7
6.1 5.5 5.3 5.1 5.1 5.0 5.3 5.7 6.1 6.2 6.1 6.2 5.8 4.8 4.7 4.6 4.5 4.8 5.4 6.9 8.3 8.1 6.7 7.0 6.6 6.4 6.3 6.7 6.5 6.0 6.3 6.0 5.9
5.9 5.9 5.6 5.7 5.7 5.5 5.6 5.8 6.0 6.2 5.8 5.7 5.2 4.9 4.6 4.3 4.4 4.5 5.4 6.6 6.7 6.5 6.6 6.7 6.6 6.2 5.9 5.7 5.7 6.1 6.0 6.0 5.7
4.2 4.7 5.5 5.9 6.0 5.8 5.6 5.7 5.8 6.1 6.0 5.6 5.6 5.3 4.8 4.1 4.1 4.8 5.2 6.4 6.7 6.6 6.3 6.1 6.0 6.0 5.9 5.6 5.4 5.4 6.0 6.1 6.1
3.3 3.3 3.7 3.7 4.6 5.5 5.8 5.9 5.9 6.0 5.9 5.6 5.7 5.8 5.3 4.1 4.4 4.5 5.3 6.4 6.6 6.5 6.3 6.0 5.7 5.5 5.5 5.5 5.5 5.2 5.1 5.4 6.1
2.5 2.7 2.9 3.6 3.9 4.7 5.0 5.9 6.0 5.8 5.9 5.7 5.5 5.7 5.0 4.3 4.0 4.9 5.8 6.5 6.8 6.4 6.2 6.1 5.9 5.7 5.4 5.3 5.4 5.4 5.1 4.9 5.1
1.3 1.5 1.8 2.2 2.7 3.7 4.7 5.5 5.5 5.3 5.2 5.4 5.6 5.1 4.9 4.7 4.3 4.8 5.9 6.1 6.2 5.9 5.9 6.1 6.0 5.7 5.6 5.6 5.2 5.0 5.1 4.9 4.5
0.2 0.0 0.5 1.1 2.0 2.9 3.9 4.4 4.5 4.9 5.2 5.2 5.4 6.0 5.4 5.1 4.9 5.6 6.2 6.4 6.3 5.9 5.6 5.7 5.8 5.6 5.4 5.4 5.3 5.1 4.8 4.9 4.8
-1.6 -1.2 -0.8 -0.6 -0.1 1.2 2.0 2.9 4.3 4.7 5.1 5.1 6.0 6.1 6.1 6.0 5.8 6.0 6.1 6.5 6.5 6.2 5.8 5.7 5.6 5.6 5.7 5.5 5.2 5.1 4.9 4.7 4.8
-1.1 -2.0 -1.7 -1.5 -0.8 -0.5 0.4 2.1 3.3 4.0 4.3 4.3 5.0 5.3 5.4 5.8 6.2 6.1 6.3 6.2 6.3 6.4 6.3 6.0 5.9 5.8 5.7 5.7 5.5 5.4 5.3 4.9 4.7
-1.8 -1.8 -2.1 -1.7 -1.1 -0.5 0.1 0.6 1.8 3.0 3.7 3.7 3.7 3.6 3.8 4.7 5.0 5.0 5.3 6.1 6.2 6.1 6.5 6.5 6.1 6.0 6.0 5.8 5.7 5.6 5.6 5.2 4.8
-1.6 -1.8 -2.3 -1.9 -1.1 -0.2 0.2 0.8 1.4 1.2 2.0 2.8 2.9 3.0 2.9 3.2 4.0 4.2 4.8 4.9 5.9 6.3 6.3 6.5 6.4 6.2 6.2 6.3 6.3 5.8 5.7 5.5 5.0
-3.2 -1.6 -3.3 -2.7 -1.7 -0.8 -0.3 -0.3 0.8 1.1 0.8 0.4 0.3 1.4 2.5 2.7 3.2 3.5 3.8 4.4 5.1 5.7 6.5 6.4 6.1 6.1 6.3 6.6 6.6 6.2 5.7 5.7 5.4
-2.5 -2.6 -3.7 -2.5 -2.4 -1.0 -1.2 -0.8 -0.2 0.3 0.3 0.6 0.6 0.5 0.8 1.3 2.1 2.2 2.9 3.5 4.4 5.1 6.0 6.5 6.5 6.2 5.9 6.4 6.7 6.7 6.2 5.6 5.7
-3.9 -2.4 -2.5 -2.3 -2.1 -0.7 -1.2 -1.0 -0.8 -0.5 -0.8 0.7 1.5 0.8 0.6 0.5 0.6 1.0 2.3 3.0 3.7 4.2 5.5 6.2 5.5 5.9 5.9 5.5 6.2 6.5 6.6 6.2 5.7
-3.4 -2.4 -1.8 -0.1 -1.6 -3.9 1.7 -0.8 -0.9 -1.3 -1.1 0.2 1.8 1.4 0.7 1.0 0.5 0.6 0.7 1.6 2.8 3.3 4.1 4.8 5.0 4.7 3.8 4.0 5.4 5.8 6.3 6.5 6.3
-3.0 -1.9 -1.0 -0.5 1.4 2.0 -0.1 0.1 -0.8 1.6 -0.8 1.0 0.8 2.3 1.9 0.4 -0.3 -0.9 -0.2 -1.0 0.8 1.6 2.6 3.5 4.4 3.8 3.0 2.8 2.8 3.8 5.3 6.7 6.3
-1.3 -1.1 0.5 0.8 0.4 0.9 0.9 0.2 0.7 2.7 1.6 1.0 0.4 1.5 2.6 1.0 0.6 0.4 -0.2 -1.3 -1.2 0.2 1.5 2.1 2.6 2.5 2.2 1.8 1.9 2.3 3.7 4.4 5.8
1.1 2.0 1.0 1.0 1.4 1.1 0.6 0.3 0.3 -0.1 -0.4 -0.4 -0.4 -1.1 -0.7 2.6 3.3 2.1 1.5 0.9 1.3 -0.5 0.4 0.7 0.9 1.1 1.0 1.4 1.5 2.0 2.6 3.2 3.7
1.4 1.3 1.2 1.3 0.5 -1.2 -0.6 -0.7 -1.5 -0.6 -1.3 -2.1 -1.9 -1.2 -0.3 -0.1 1.4 3.9 3.2 2.2 0.5 -0.2 -0.3 0.0 0.4 0.5 0.5 0.6 0.9 1.4 1.8 2.5 2.9
Wind_Speed
18 18 17 15 14 14 14 13 14 14 15 16 14 13 14 16 14 12 11 12 16 16 18 18 18 17 18 18 19 20 20 21 21
16 17 16 14 14 14 13 12 12 14 15 14 14 12 13 14 13 13 13 14 15 16 16 16 18 17 18 18 19 18 19 20 20
14 15 14 13 12 12 12 10 10 13 14 13 11 11 10 11 12 10 11 13 14 15 15 15 16 16 17 17 18 18 18 18 19
17 16 10 11 11 9 9 9 9 10 11 11 10 11 11 10 9 9 10 12 13 13 14 14 14 15 16 17 18 18 18 19 18
13 13 12 12 10 7 7 6 7 9 10 9 9 9 9 8 8 8 7 10 11 12 12 13 13 13 14 15 16 17 18 18 18
14 12 11 8 9 6 3 6 6 6 7 7 7 8 7 6 5 6 7 7 9 9 10 11 12 12 12 13 14 16 16 17 18
8 12 12 11 9 7 5 5 4 4 4 4 3 5 8 6 4 6 7 7 8 8 8 9 10 10 11 12 12 13 14 14 15
8 8 9 9 8 7 8 7 4 1 0 4 2 5 9 6 3 5 5 6 6 6 7 7 7 8 9 9 11 12 12 13 13
7 7 6 7 7 7 7 6 6 6 8 6 6 8 8 6 5 4 3 3 4 5 5 5 5 6 6 6 8 9 10 11 12
9 8 8 7 6 5 4 4 3 4 6 8 8 7 7 5 4 3 2 0 1 2 2 3 2 3 3 3 5 7 8 9 10
11 8 8 9 9 5 3 3 2 2 3 5 7 6 7 6 5 4 1 2 2 3 2 2 2 2 1 1 1 3 5 6 7
9 8 8 10 11 7 5 4 3 2 3 3 4 4 4 6 7 5 4 3 4 5 5 3 2 2 4 3 2 2 2 3 4
10 7 8 13 11 9 4 2 2 2 3 2 3 2 3 5 5 4 5 5 4 4 5 5 5 3 4 5 6 1 3 1 1
5 7 11 12 11 8 4 3 3 2 2 3 3 3 2 3 4 5 4 5 5 5 2 4 4 5 4 4 5 5 3 4 2
9 7 7 9 6 5 6 3 4 3 2 3 4 3 3 2 4 3 4 5 5 5 4 4 1 4 5 5 5 6 4 2 5
9 8 7 3 3 7 8 3 5 3 3 2 2 2 3 3 2 3 3 5 6 9 9 9 8 9 15 16 8 5 4 3 4
8 4 5 7 3 1 5 3 3 2 5 1 1 0 2 3 5 3 4 5 9 11 13 13 12 12 12 16 18 12 10 4 4
7 4 2 2 5 3 4 4 5 2 1 3 3 2 2 1 3 5 4 5 4 9 11 13 15 15 15 16 17 22 20 19 14
7 5 4 5 3 3 4 6 3 3 1 2 3 3 2 1 1 2 2 4 7 5 8 11 14 15 15 18 20 20 19 18 16
7 7 7 3 4 6 4 4 5 3 1 1 2 2 2 2 2 2 1 3 4 4 7 11 12 16 15 17 19 19 18 16 15
Wind_Direction
131 128 125 122 117 112 114 111 99 84 90 97 94 94 89 85 79 72 69 88 77 70 66 66 67 64 63 62 56 52 51 50 51
133 131 130 129 124 116 115 110 99 87 88 97 93 95 96 87 78 74 69 71 76 73 69 66 66 62 57 56 57 56 55 52 50
116 131 136 136 132 124 119 112 98 89 91 94 101 96 102 95 86 77 82 82 82 80 74 70 68 65 61 58 55 51 54 55 54
87 85 115 144 143 135 130 123 111 96 92 87 107 103 110 106 100 84 81 93 89 86 83 78 73 69 63 59 57 54 50 48 50
85 79 80 86 94 136 146 141 126 106 100 88 90 131 120 110 108 99 90 104 100 94 88 83 80 77 74 68 61 58 55 47 43
105 90 75 78 76 116 183 173 141 111 99 90 87 138 125 125 129 126 111 116 104 99 92 86 81 75 72 71 68 63 58 54 47
82 93 84 78 77 80 107 167 146 119 106 96 102 143 151 141 157 137 127 116 114 106 97 89 83 76 70 63 64 65 63 64 59
58 61 83 87 79 80 84 90 82 45 250 127 116 132 163 148 153 150 136 122 121 116 108 95 86 76 72 69 64 61 56 55 60
40 43 34 74 75 79 77 73 73 64 57 76 112 100 152 148 148 146 146 143 130 118 114 112 103 90 72 67 70 67 67 61 54
0 38 31 23 49 68 67 72 71 62 61 56 65 80 94 124 142 138 144 109 211 168 137 119 112 114 98 68 65 69 66 67 64
359 10 24 14 11 25 34 39 50 47 44 70 63 63 66 71 75 83 12 265 259 276 239 200 195 199 186 158 103 80 77 75 69
7 355 21 1 350 2 15 17 24 40 29 33 77 64 54 52 54 32 22 16 281 262 264 273 280 315 287 261 230 177 109 82 85
39 346 22 354 350 350 13 22 17 29 22 16 344 4 28 28 11 26 22 1 341 299 254 253 269 300 334 358 353 304 191 159 105
44 13 26 353 356 342 348 33 17 32 356 336 328 329 6 348 338 344 2 1 353 333 299 242 266 272 282 304 315 345 228 217 245
54 28 26 14 11 335 338 23 39 8 10 335 313 305 301 323 306 322 334 353 350 351 330 215 261 333 331 321 297 297 334 293 241
53 40 0 29 46 34 287 350 49 14 344 19 335 338 16 53 350 309 11 16 40 65 55 68 73 70 53 41 39 13 303 331 7
51 34 19 14 18 65 14 335 54 271 12 44 253 172 9 33 20 31 77 63 58 48 49 55 62 65 64 43 45 42 37 30 49
69 42 57 40 45 20 35 16 28 266 283 35 245 111 206 79 12 19 34 61 52 39 36 50 63 64 61 49 39 41 45 40 38
96 105 46 51 82 77 31 27 355 289 357 310 13 55 81 105 135 30 15 33 41 34 39 48 54 59 59 56 45 43 45 39 30
71 75 60 31 30 58 44 47 11 332 12 336 342 27 61 67 82 171 16 68 29 12 52 56 48 53 52 52 42 39 36 30 27